Time,TemperatureF,DewpointF,PressureIn,WindDirection,WindDirectionDegrees,WindSpeedMPH,WindSpeedGustMPH,Humidity,HourlyPrecipIn,Conditions,Clouds,dailyrainin,SoftwareType,DateUTC
2013-01-27 00:04:00,-999.0,-99.9,30.41,North,5,22.0,26.0,-999,-99.99,,,-99.99,,2013-01-27 05:04:00,
2013-01-27 00:12:00,29.0,-99.9,30.41,North,352,21.0,26.0,-999,-99.99,,,-99.99,,2013-01-27 05:12:00,
2013-01-27 00:22:00,29.0,-99.9,30.42,North,356,19.0,23.0,-999,-99.99,,,-99.99,,2013-01-27 05:22:00,
2013-01-27 00:32:00,29.0,-99.9,30.42,North,2,20.0,23.0,-999,-99.99,,,-99.99,,2013-01-27 05:32:00,
2013-01-27 00:42:00,29.0,-99.9,30.42,North,2,20.0,23.0,-999,-99.99,,,-99.99,,2013-01-27 05:42:00,
2013-01-27 00:52:00,29.0,-99.9,30.42,North,7,21.0,24.0,-999,-99.99,,,-99.99,,2013-01-27 05:52:00,
2013-01-27 01:00:00,29.0,-99.9,30.43,North,9,19.0,21.0,-999,-99.99,,,-99.99,,2013-01-27 06:00:00,
2013-01-27 01:02:00,29.0,-99.9,30.42,North,7,21.0,24.0,-999,-99.99,,,-99.99,,2013-01-27 06:02:00,
2013-01-27 01:11:00,29.0,-99.9,30.42,North,9,19.0,23.0,-999,-99.99,,,-99.99,,2013-01-27 06:11:00,
2013-01-27 01:22:00,29.0,-99.9,30.42,North,6,19.0,22.0,-999,-99.99,,,-99.99,,2013-01-27 06:22:00,
2013-01-27 01:32:00,29.0,-99.9,30.43,North,9,19.0,21.0,-999,-99.99,,,-99.99,,2013-01-27 06:32:00,
2013-01-27 01:42:00,29.0,-99.9,30.43,North,9,19.0,21.0,-999,-99.99,,,-99.99,,2013-01-27 06:42:00,
2013-01-27 01:52:00,29.0,-99.9,30.43,North,9,19.0,21.0,-999,-99.99,,,-99.99,,2013-01-27 06:52:00,
2013-01-27 02:22:00,29.0,-99.9,30.46,North,10,16.0,20.0,-999,-99.99,,,-99.99,,2013-01-27 07:22:00,
2013-01-27 02:32:00,29.0,-99.9,30.46,North,10,16.0,20.0,-999,-99.99,,,-99.99,,2013-01-27 07:32:00,
2013-01-27 02:42:00,29.0,-99.9,30.46,North,10,16.0,20.0,-999,-99.99,,,-99.99,,2013-01-27 07:42:00,
2013-01-27 02:52:00,26.0,-99.9,30.47,WNW,301,13.0,15.0,-999,-99.99,,,-99.99,,2013-01-27 07:52:00,
2013-01-27 03:02:00,26.0,-99.9,30.47,WNW,301,13.0,15.0,-999,-99.99,,,-99.99,,2013-01-27 08:02:00,
2013-01-27 03:12:00,26.0,-99.9,30.47,WNW,301,13.0,15.0,-999,-99.99,,,-99.99,,2013-01-27 08:12:00,
2013-01-27 03:22:00,-999.0,-99.9,30.47,WNW,301,13.0,15.0,-999,-99.99,,,-99.99,,2013-01-27 08:22:00,
2013-01-27 03:32:00,-999.0,-99.9,30.47,WNW,301,13.0,15.0,-999,-99.99,,,-99.99,,2013-01-27 08:32:00,
2013-01-27 03:42:00,24.0,-99.9,30.47,West,279,9.0,11.0,-999,-99.99,,,-99.99,,2013-01-27 08:42:00,
2013-01-27 03:52:00,22.0,-99.9,30.46,West,267,8.0,10.0,-999,-99.99,,,-99.99,,2013-01-27 08:52:00,
2013-01-27 04:00:00,24.0,-99.9,30.48,WNW,282,10.0,12.0,-999,-99.99,,,-99.99,,2013-01-27 09:00:00,
2013-01-27 04:03:00,22.0,-99.9,30.46,West,267,8.0,10.0,-999,-99.99,,,-99.99,,2013-01-27 09:03:00,
2013-01-27 04:11:00,22.0,-99.9,30.46,West,267,8.0,10.0,-999,-99.99,,,-99.99,,2013-01-27 09:11:00,
2013-01-27 04:22:00,24.0,-99.9,30.47,West,278,9.0,10.0,-999,-99.99,,,-99.99,,2013-01-27 09:22:00,
2013-01-27 04:32:00,24.0,-99.9,30.48,WNW,282,10.0,12.0,-999,-99.99,,,-99.99,,2013-01-27 09:32:00,
2013-01-27 04:42:00,24.0,-99.9,30.48,WNW,282,10.0,12.0,-999,-99.99,,,-99.99,,2013-01-27 09:42:00,
2013-01-27 04:52:00,24.0,-99.9,30.48,WNW,282,10.0,12.0,-999,-99.99,,,-99.99,,2013-01-27 09:52:00,
2013-01-27 05:11:00,24.0,-99.9,30.48,WNW,301,6.0,7.0,-999,-99.99,,,-99.99,,2013-01-27 10:11:00,
2013-01-27 05:21:00,27.0,-99.9,30.48,NNW,335,12.0,18.0,-999,-99.99,,,-99.99,,2013-01-27 10:21:00,
2013-01-27 05:32:00,24.0,-99.9,30.49,WNW,288,9.0,13.0,-999,-99.99,,,-99.99,,2013-01-27 10:32:00,
2013-01-27 05:42:00,24.0,-99.9,30.49,West,280,8.0,11.0,-999,-99.99,,,-99.99,,2013-01-27 10:42:00,
2013-01-27 05:52:00,-999.0,-99.9,30.49,NW,306,7.0,12.0,-999,-99.99,,,-99.99,,2013-01-27 10:52:00,
2013-01-27 06:01:00,25.0,-99.9,30.49,NW,321,6.0,8.0,-999,-99.99,,,-99.99,,2013-01-27 11:01:00,
2013-01-27 06:11:00,29.0,-99.9,30.49,North,360,14.0,18.0,-999,-99.99,,,-99.99,,2013-01-27 11:11:00,
2013-01-27 06:22:00,29.0,-99.9,30.49,North,360,14.0,18.0,-999,-99.99,,,-99.99,,2013-01-27 11:22:00,
2013-01-27 06:32:00,29.0,-99.9,30.49,North,360,14.0,18.0,-999,-99.99,,,-99.99,,2013-01-27 11:32:00,
2013-01-27 06:52:00,29.0,-99.9,30.50,North,-999,15.0,18.0,-999,-99.99,,,-99.99,,2013-01-27 11:52:00,
2013-01-27 07:03:00,29.0,-99.9,30.50,North,7,14.0,16.0,-999,-99.99,,,-99.99,,2013-01-27 12:03:00,
2013-01-27 07:12:00,29.0,-99.9,30.50,North,7,14.0,16.0,-999,-99.99,,,-99.99,,2013-01-27 12:12:00,
2013-01-27 07:22:00,29.0,-99.9,30.50,North,7,14.0,16.0,-999,-99.99,,,-99.99,,2013-01-27 12:22:00,
2013-01-27 07:33:00,29.0,-99.9,30.51,North,5,15.0,17.0,-999,-99.99,,,-99.99,,2013-01-27 12:33:00,
2013-01-27 07:42:00,29.0,-99.9,30.51,North,5,15.0,17.0,-999,-99.99,,,-99.99,,2013-01-27 12:42:00,
2013-01-27 07:52:00,26.0,-99.9,30.52,WNW,300,11.0,12.0,-999,-99.99,,,-99.99,,2013-01-27 12:52:00,
2013-01-27 08:02:00,26.0,-99.9,30.52,WNW,300,11.0,12.0,-999,-99.99,,,-99.99,,2013-01-27 13:02:00,
2013-01-27 08:12:00,26.0,-99.9,30.52,WNW,300,11.0,12.0,-999,-99.99,,,-99.99,,2013-01-27 13:12:00,
2013-01-27 08:22:00,-999.0,-99.9,30.54,West,280,9.0,10.0,-999,-99.99,,,-99.99,,2013-01-27 13:22:00,
2013-01-27 08:32:00,-999.0,-99.9,30.54,West,280,9.0,10.0,-999,-99.99,,,-99.99,,2013-01-27 13:32:00,
2013-01-27 08:42:00,-999.0,-99.9,30.54,West,280,9.0,10.0,-999,-99.99,,,-99.99,,2013-01-27 13:42:00,
2013-01-27 08:52:00,25.0,-99.9,30.55,WNW,282,11.0,13.0,-999,-99.99,,,-99.99,,2013-01-27 13:52:00,
2013-01-27 09:02:00,26.0,-99.9,30.56,WNW,290,12.0,14.0,-999,-99.99,,,-99.99,,2013-01-27 14:02:00,
2013-01-27 09:12:00,26.0,-99.9,30.56,WNW,290,12.0,14.0,-999,-99.99,,,-99.99,,2013-01-27 14:12:00,
2013-01-27 09:22:00,26.0,-99.9,30.56,WNW,290,12.0,14.0,-999,-99.99,,,-99.99,,2013-01-27 14:22:00,
2013-01-27 09:33:00,26.0,-99.9,30.56,WNW,290,12.0,14.0,-999,-99.99,,,-99.99,,2013-01-27 14:33:00,
2013-01-27 09:43:00,27.0,-99.9,30.57,NW,314,13.0,16.0,-999,-99.99,,,-99.99,,2013-01-27 14:43:00,
2013-01-27 09:53:00,-999.0,-99.9,30.58,NW,313,14.0,16.0,-999,-99.99,,,-99.99,,2013-01-27 14:53:00,
2013-01-27 10:02:00,-999.0,-99.9,30.58,NW,313,13.0,15.0,-999,-99.99,,,-99.99,,2013-01-27 15:02:00,
2013-01-27 10:12:00,28.0,-99.9,30.58,NW,314,13.0,15.0,-999,-99.99,,,-99.99,,2013-01-27 15:12:00,
2013-01-27 10:22:00,-999.0,-99.9,30.58,NW,320,14.0,16.0,-999,-99.99,,,-99.99,,2013-01-27 15:22:00,
2013-01-27 10:33:00,27.0,-99.9,30.58,NW,317,13.0,16.0,-999,-99.99,,,-99.99,,2013-01-27 15:33:00,
2013-01-27 10:43:00,27.0,-99.9,30.58,NW,317,13.0,16.0,-999,-99.99,,,-99.99,,2013-01-27 15:43:00,
2013-01-27 10:53:00,28.0,-99.9,30.60,NW,324,15.0,19.0,-999,-99.99,,,-99.99,,2013-01-27 15:53:00,
2013-01-27 11:03:00,-999.0,-99.9,30.60,NW,319,13.0,15.0,-999,-99.99,,,-99.99,,2013-01-27 16:03:00,
2013-01-27 11:12:00,-999.0,-99.9,30.59,NW,323,12.0,14.0,-999,-99.99,,,-99.99,,2013-01-27 16:12:00,
2013-01-27 11:22:00,-999.0,-99.9,30.59,NW,324,13.0,15.0,-999,-99.99,,,-99.99,,2013-01-27 16:22:00,
2013-01-27 11:33:00,-999.0,-99.9,30.59,NW,322,12.0,13.0,-999,-99.99,,,-99.99,,2013-01-27 16:33:00,
2013-01-27 11:42:00,28.0,-99.9,30.59,NW,322,13.0,15.0,-999,-99.99,,,-99.99,,2013-01-27 16:42:00,
2013-01-27 11:53:00,-999.0,-99.9,30.59,NW,326,12.0,15.0,-999,-99.99,,,-99.99,,2013-01-27 16:53:00,
2013-01-27 12:02:00,-999.0,-99.9,30.58,NW,322,12.0,14.0,-999,-99.99,,,-99.99,,2013-01-27 17:02:00,
2013-01-27 12:12:00,29.0,-99.9,30.58,NW,319,10.0,11.0,-999,-99.99,,,-99.99,,2013-01-27 17:12:00,
2013-01-27 12:22:00,-999.0,-99.9,30.57,NW,326,11.0,13.0,-999,-99.99,,,-99.99,,2013-01-27 17:22:00,
2013-01-27 12:33:00,29.0,-99.9,30.57,NW,318,11.0,12.0,-999,-99.99,,,-99.99,,2013-01-27 17:33:00,
2013-01-27 12:42:00,-999.0,-99.9,30.56,NW,316,9.0,11.0,-999,-99.99,,,-99.99,,2013-01-27 17:42:00,
2013-01-27 12:53:00,-999.0,-99.9,30.55,NNW,327,9.0,10.0,-999,-99.99,,,-99.99,,2013-01-27 17:53:00,
2013-01-27 13:03:00,-999.0,-99.9,30.55,NNW,327,9.0,11.0,-999,-99.99,,,-99.99,,2013-01-27 18:03:00,
2013-01-27 13:12:00,30.0,-99.9,30.55,NNW,334,9.0,11.0,-999,-99.99,,,-99.99,,2013-01-27 18:12:00,
2013-01-27 13:23:00,-999.0,-99.9,30.55,NNW,335,7.0,8.0,-999,-99.99,,,-99.99,,2013-01-27 18:23:00,
2013-01-27 13:32:00,-999.0,-99.9,30.54,North,350,7.0,9.0,-999,-99.99,,,-99.99,,2013-01-27 18:32:00,
2013-01-27 13:42:00,30.0,-99.9,30.54,NNW,346,9.0,10.0,-999,-99.99,,,-99.99,,2013-01-27 18:42:00,
2013-01-27 13:53:00,-999.0,-99.9,30.53,North,350,8.0,9.0,-999,-99.99,,,-99.99,,2013-01-27 18:53:00,
2013-01-27 14:02:00,30.0,-99.9,30.53,North,349,8.0,9.0,-999,-99.99,,,-99.99,,2013-01-27 19:02:00,
2013-01-27 14:12:00,-999.0,-99.9,30.53,North,7,7.0,9.0,-999,-99.99,,,-99.99,,2013-01-27 19:12:00,
2013-01-27 14:22:00,-999.0,-99.9,30.53,North,5,7.0,8.0,-999,-99.99,,,-99.99,,2013-01-27 19:22:00,
2013-01-27 14:33:00,-999.0,-99.9,30.53,North,356,5.0,7.0,-999,-99.99,,,-99.99,,2013-01-27 19:33:00,
2013-01-27 14:42:00,-999.0,-99.9,30.52,North,6,7.0,8.0,-999,-99.99,,,-99.99,,2013-01-27 19:42:00,
2013-01-27 14:52:00,-999.0,-99.9,30.53,North,8,6.0,7.0,-999,-99.99,,,-99.99,,2013-01-27 19:52:00,
2013-01-27 15:03:00,-999.0,-99.9,30.52,North,8,6.0,7.0,-999,-99.99,,,-99.99,,2013-01-27 20:03:00,
2013-01-27 15:12:00,31.0,-99.9,30.53,North,7,5.0,6.0,-999,-99.99,,,-99.99,,2013-01-27 20:12:00,
2013-01-27 15:22:00,-999.0,-99.9,30.53,North,1,5.0,6.0,-999,-99.99,,,-99.99,,2013-01-27 20:22:00,
2013-01-27 15:33:00,-999.0,-99.9,30.52,North,6,5.0,5.0,-999,-99.99,,,-99.99,,2013-01-27 20:33:00,
2013-01-27 15:43:00,-999.0,-99.9,30.52,NNE,19,4.0,4.0,-999,-99.99,,,-99.99,,2013-01-27 20:43:00,
2013-01-27 15:52:00,33.0,-99.9,30.52,NNE,19,3.0,4.0,-999,-99.99,,,-99.99,,2013-01-27 20:52:00,
2013-01-27 16:02:00,33.0,-99.9,30.52,NE,35,3.0,3.0,-999,-99.99,,,-99.99,,2013-01-27 21:02:00,
2013-01-27 16:12:00,33.0,-99.9,30.52,North,9,2.0,3.0,-999,-99.99,,,-99.99,,2013-01-27 21:12:00,
2013-01-27 16:23:00,34.0,-99.9,30.52,North,11,2.0,2.0,-999,-99.99,,,-99.99,,2013-01-27 21:23:00,
2013-01-27 16:33:00,33.0,-99.9,30.52,North,5,2.0,3.0,-999,-99.99,,,-99.99,,2013-01-27 21:33:00,
2013-01-27 16:43:00,33.0,-99.9,30.52,NNW,335,1.0,1.0,-999,-99.99,,,-99.99,,2013-01-27 21:43:00,
2013-01-27 16:52:00,34.0,-99.9,30.52,NNW,333,1.0,2.0,-999,-99.99,,,-99.99,,2013-01-27 21:52:00,
2013-01-27 17:03:00,33.0,-99.9,30.53,North,358,2.0,3.0,-999,-99.99,,,-99.99,,2013-01-27 22:03:00,
2013-01-27 17:12:00,33.0,-99.9,30.52,North,6,3.0,3.0,-999,-99.99,,,-99.99,,2013-01-27 22:12:00,
2013-01-27 17:22:00,33.0,-99.9,30.52,North,351,-999.0,0.0,-999,-99.99,,,-99.99,,2013-01-27 22:22:00,
2013-01-27 17:33:00,33.0,-99.9,30.52,North,-999,-999.0,-999.0,-999,-99.99,,,-99.99,,2013-01-27 22:33:00,
2013-01-27 17:42:00,32.0,-99.9,30.53,North,-999,-999.0,-999.0,-999,-99.99,,,-99.99,,2013-01-27 22:42:00,
2013-01-27 18:12:00,31.0,-99.9,30.53,SW,220,1.0,1.0,-999,-99.99,,,-99.99,,2013-01-27 23:12:00,
2013-01-27 18:22:00,-999.0,-99.9,30.53,WSW,238,2.0,2.0,-999,-99.99,,,-99.99,,2013-01-27 23:22:00,
2013-01-27 18:32:00,-999.0,-99.9,30.54,West,263,2.0,2.0,-999,-99.99,,,-99.99,,2013-01-27 23:32:00,
2013-01-27 18:42:00,-999.0,-99.9,30.54,WSW,254,3.0,3.0,-999,-99.99,,,-99.99,,2013-01-27 23:42:00,
2013-01-27 18:53:00,32.0,-99.9,30.54,WNW,282,3.0,4.0,-999,-99.99,,,-99.99,,2013-01-27 23:53:00,
2013-01-27 19:02:00,32.0,-99.9,30.54,West,277,3.0,3.0,-999,-99.99,,,-99.99,,2013-01-28 00:02:00,
2013-01-27 19:12:00,32.0,-99.9,30.55,WNW,297,4.0,5.0,-999,-99.99,,,-99.99,,2013-01-28 00:12:00,
2013-01-27 19:22:00,-999.0,-99.9,30.55,WNW,296,3.0,3.0,-999,-99.99,,,-99.99,,2013-01-28 00:22:00,
2013-01-27 19:33:00,-999.0,-99.9,30.54,West,280,2.0,3.0,-999,-99.99,,,-99.99,,2013-01-28 00:33:00,
2013-01-27 19:42:00,31.0,-99.9,30.54,West,273,3.0,3.0,-999,-99.99,,,-99.99,,2013-01-28 00:42:00,
2013-01-27 19:52:00,-999.0,-99.9,30.54,WSW,257,2.0,3.0,-999,-99.99,,,-99.99,,2013-01-28 00:52:00,
2013-01-27 20:02:00,-999.0,-99.9,30.55,WSW,258,2.0,3.0,-999,-99.99,,,-99.99,,2013-01-28 01:02:00,
2013-01-27 20:12:00,31.0,-99.9,30.54,West,261,3.0,4.0,-999,-99.99,,,-99.99,,2013-01-28 01:12:00,
2013-01-27 20:22:00,31.0,-99.9,30.54,WSW,242,4.0,4.0,-999,-99.99,,,-99.99,,2013-01-28 01:22:00,
2013-01-27 20:33:00,31.0,-99.9,30.54,SW,232,3.0,4.0,-999,-99.99,,,-99.99,,2013-01-28 01:33:00,
2013-01-27 20:43:00,31.0,-99.9,30.54,SW,232,3.0,4.0,-999,-99.99,,,-99.99,,2013-01-28 01:43:00,
2013-01-27 20:52:00,-999.0,-99.9,30.54,WSW,242,5.0,6.0,-999,-99.99,,,-99.99,,2013-01-28 01:52:00,
2013-01-27 21:02:00,30.0,-99.9,30.54,SW,234,3.0,4.0,-999,-99.99,,,-99.99,,2013-01-28 02:02:00,
2013-01-27 21:12:00,30.0,-99.9,30.54,SW,234,3.0,4.0,-999,-99.99,,,-99.99,,2013-01-28 02:12:00,
2013-01-27 21:22:00,30.0,-99.9,30.54,WSW,243,6.0,6.0,-999,-99.99,,,-99.99,,2013-01-28 02:22:00,
2013-01-27 21:32:00,30.0,-99.9,30.54,WSW,243,6.0,6.0,-999,-99.99,,,-99.99,,2013-01-28 02:32:00,
2013-01-27 21:42:00,30.0,-99.9,30.55,SW,235,5.0,5.0,-999,-99.99,,,-99.99,,2013-01-28 02:42:00,
2013-01-27 21:53:00,29.0,-99.9,30.54,SW,224,5.0,6.0,-999,-99.99,,,-99.99,,2013-01-28 02:53:00,
2013-01-27 22:02:00,-999.0,-99.9,30.54,WSW,238,6.0,7.0,-999,-99.99,,,-99.99,,2013-01-28 03:02:00,
2013-01-27 22:12:00,29.0,-99.9,30.55,WSW,246,7.0,7.0,-999,-99.99,,,-99.99,,2013-01-28 03:12:00,
2013-01-27 22:22:00,29.0,-99.9,30.55,WSW,246,7.0,7.0,-999,-99.99,,,-99.99,,2013-01-28 03:22:00,
2013-01-27 22:32:00,29.0,-99.9,30.54,SW,226,6.0,7.0,-999,-99.99,,,-99.99,,2013-01-28 03:32:00,
2013-01-27 22:42:00,29.0,-99.9,30.54,SW,226,6.0,7.0,-999,-99.99,,,-99.99,,2013-01-28 03:42:00,
2013-01-27 22:53:00,29.0,-99.9,30.53,SW,217,5.0,6.0,-999,-99.99,,,-99.99,,2013-01-28 03:53:00,
2013-01-27 23:02:00,-999.0,-99.9,30.53,SW,220,5.0,7.0,-999,-99.99,,,-99.99,,2013-01-28 04:02:00,
2013-01-27 23:12:00,-999.0,-99.9,30.53,SW,220,5.0,7.0,-999,-99.99,,,-99.99,,2013-01-28 04:12:00,
2013-01-27 23:22:00,28.0,-99.9,30.53,SW,222,4.0,6.0,-999,-99.99,,,-99.99,,2013-01-28 04:22:00,
2013-01-27 23:32:00,28.0,-99.9,30.52,SW,220,5.0,6.0,-999,-99.99,,,-99.99,,2013-01-28 04:32:00,
2013-01-27 23:42:00,28.0,-99.9,30.52,SW,220,5.0,6.0,-999,-99.99,,,-99.99,,2013-01-28 04:42:00,
2013-01-27 23:52:00,-999.0,-99.9,30.52,SSW,210,5.0,6.0,-999,-99.99,,,-99.99,,2013-01-28 04:52:00,